Location: Berg
(48.4333°N, 13.9167°E)
Time: 02:25:48
(UTC+00:00)

USA 234 - Pass Details

Date: 18 September 2020
Orbit: 1102 x 1106 km, 123.0° (Epoch: 16 October)

Event Time Altitude Azimuth Distance (km) Brightness Sun altitude
Rises 23:41:01 0° 85° (E) 3,919 6.4 -39.3°
Reaches altitude 10° 23:43:36 10° 79° (E) 2,962 5.7 -39.2°
Maximum altitude 23:49:43 45° 10° (N) 1,469 4.1 -38.9°
Enters shadow 23:50:38 42° 348° (NNW) 1,519 4.2 -38.9°
Exits shadow 23:54:27 17° 306° (NW) 2,476 5.2 -38.7°
Drops below altitude 10° 23:55:52 10° 300° (WNW) 2,967 5.6 -38.6°
Sets 23:58:27 0° 295° (WNW) 3,926 6.2 -38.5°
